Location: Stendal
(52.5994°N, 11.8400°E)
Time: 16:38:54
(UTC+01:00)

Envisat - Pass Details

Date: 07 October 2022
Orbit: 763 x 765 km, 98.2° (Epoch: 30 November)

Event Time Altitude Azimuth Distance (km) Brightness Sun altitude
Rises 05:06:45 0° 19° (NNE) 3,247 6.8 -21.3°
Reaches altitude 10° 05:09:11 10° 26° (NNE) 2,316 6.1 -21.0°
Maximum altitude 05:14:02 42° 97° (E) 1,085 4.2 -20.3°
Drops below altitude 10° 05:18:50 10° 169° (SSE) 2,298 5.4 -19.6°
Sets 05:21:15 0° 176° (S) 3,219 6.1 -19.2°
